Tracking 18987 objects as of 25-Feb-2018
HD Live streaming from Space Station
objects crossing your sky now

FENGYUN 1C DEB

Track FENGYUN 1C DEB now!
10-day predictions


NORAD ID: 29738
Int'l Code: 1999-025AC
Perigee: 808.7 km
Apogee: 2,135.2 km
Inclination: 99.5 °
Period: 115.2 minutes
Semi major axis: 7842 km
RCS: 0.1066 m2 (medium)
Launch date: May 10, 1999
Source: People's Republic of China (PRC)
Launch site: Taiyaun Space Center, China (TSC)

Note: This is SATELLITE DEBRIS
aabbcc
Your satellite tracking list
Your tracking list is empty




NASA's NSSDC Master Catalog

Two Line Element Set (TLE):
1 29738U 99025AC  18055.77086297 -.00001526  00000-0 -26109-2 0  9995
2 29738  99.4530  10.9461 0845705 268.5773  81.8394 12.49920710505467
Source of the keplerian elements: AFSPC